[[{"header":{"parameterUnit":"m.s-1","parameterCategory":1,"la1":30.2991,"la2":30.254,"lo1":-89.0895,"lo2":-89.0444,"dy":0.0017,"dx":0.0017,"nx":28,"ny":28,"refTime":"2023-09-16T09:00:00:Z","depth":0,"parameterNumber":2,"parameterNumberName":"U-component_of_WINDS"},"data":[0,0,0,0,0,0,0,0,0,0,0,0,0,0,0,0,0,0,0,0,0,0,0,0,0,0,0,0,0,0,0,0,0,0,0,0,0,0,0,0,0,0,0,0,0,0,0,0,0,0,0,0,0,0,0,0,0,0,2.8835,2.8836,0,2.8948,2.8949,2.8951,2.8965,2.8964,2.8963,2.8962,2.9079,2.9083,2.9087,0,0,0,0,0,0,0,0,0,0,0,0,0,2.8631,2.8635,2.8834,2.8836,2.8837,2.8948,2.8949,2.8951,2.8965,2.8964,2.8963,2.8961,2.9078,2.9083,2.9088,0,0,0,0,0,0,0,0,0,0,0,0,0,2.8729,2.8636,2.8834,2.8858,2.8861,2.8948,2.8949,2.8951,2.8966,2.8964,2.8962,2.8961,2.9076,2.9082,2.9088,2.9159,0,0,2.9107,2.911,0,0,0,0,0,0,0,0,2.8724,2.8737,2.8853,2.8856,2.886,2.8941,2.8921,2.9021,2.8966,2.8926,2.8962,2.896,2.9034,2.9044,2.9069,2.9165,2.917,2.9108,2.9112,2.9114,2.9116,0,0,0,0,0,0,0,2.8717,2.8732,2.8879,2.8855,2.8859,2.8863,2.8875,2.894,2.8988,2.8929,2.8931,2.8944,2.9036,2.9063,2.9072,2.9172,2.9108,2.9113,2.9117,2.9119,2.9332,2.9334,0,0,0,0,0,0,2.8706,2.8726,2.8876,2.8883,2.8786,2.8868,2.8882,2.8917,2.8987,2.8997,2.8945,2.8944,2.9053,2.9064,2.9076,2.9164,2.9114,2.912,2.9124,2.933,2.9333,2.9335,0,0,0,0,0,0,2.8701,2.8719,2.8871,2.8805,2.8825,2.8873,2.8912,2.892,2.8946,2.8999,2.9008,2.8963,2.9052,2.9067,2.9139,2.9168,2.9123,2.9128,2.9328,2.9331,2.9334,2.934,0,0,0,0,0,0,2.8695,2.8717,2.8744,2.8805,2.8828,2.8932,2.8914,2.8923,2.8957,2.8957,2.9019,2.9028,2.9052,2.9129,2.9145,2.9176,2.9133,2.9325,2.9329,2.9333,2.9337,2.9343,2.9347,0,0,0,0,0,2.8688,2.8742,2.8746,2.8764,2.8863,2.8933,2.8946,2.8973,2.8959,2.8987,2.9021,2.9026,2.9162,2.9136,2.9154,2.9187,2.9324,2.9328,2.9332,2.9335,2.9342,2.9347,0,0,0,0,0,0,2.8683,2.875,2.8755,2.883,2.8876,2.8935,2.8971,2.8979,2.903,2.9027,2.9059,2.9073,2.9143,2.9172,2.9142,2.926,2.9242,2.925,2.9238,2.9245,2.925,2.9241,2.9138,0,0,0,0,0,2.8691,2.8742,2.8798,2.8859,2.8881,2.8922,2.8954,2.8971,2.9019,2.9039,2.9078,2.9125,2.9179,2.9214,2.9266,2.9342,2.9356,2.9374,2.9379,2.9383,2.9389,2.9432,2.944,2.9349,2.9349,2.9349,0,0,2.8707,2.875,2.878,2.8859,2.8896,2.8948,2.8939,2.8994,2.9034,2.9047,2.9117,2.9147,2.9202,2.9276,2.9311,2.9303,2.9417,2.9388,2.9391,2.9395,2.9437,2.9446,2.9453,2.9352,2.9351,2.9351,0,0,2.8763,2.8801,2.8856,2.8893,2.895,2.8977,2.899,2.9049,2.907,2.914,2.9152,2.9199,2.9291,2.9329,2.9361,2.9433,2.9439,2.9449,2.9475,2.9516,2.9523,2.953,2.9555,2.9564,2.9455,2.9455,2.9455,0,2.8776,2.8855,2.8883,2.8939,2.8973,2.8988,2.9044,2.9079,2.915,2.9173,2.9164,2.9279,2.9317,2.94,2.9418,2.9443,2.9459,2.9442,2.952,2.9527,2.9533,2.9558,2.9567,2.9456,2.9456,2.9456,2.9456,0,2.8868,2.8923,2.8961,2.9028,2.9067,2.9123,2.9159,2.9195,2.9209,2.9237,2.9308,2.9355,2.9417,2.9438,2.9452,2.9523,2.9517,2.9513,2.9495,2.9542,2.9566,2.9575,2.9457,2.9457,2.9457,2.9457,0,0,2.8924,2.9007,2.902,2.9051,2.9115,2.9158,2.9214,2.9275,2.9305,2.9353,2.9401,2.9479,2.9476,2.9512,2.9531,2.9567,2.9621,2.9559,2.9561,2.9568,2.9702,2.9704,2.9714,2.9625,2.9627,2.9629,2.9697,0,2.8987,2.9087,2.9114,2.9199,2.925,2.9266,2.9315,2.9359,2.9388,2.9435,2.9467,2.9521,2.9513,2.9535,2.9572,2.9606,2.9648,2.9602,2.967,2.9672,2.9655,2.9727,2.9729,2.9791,2.9707,2.9708,2.971,0,2.9074,2.9124,2.9214,2.9271,2.9294,2.9337,2.9395,2.9441,2.9492,2.951,2.955,2.9566,2.9625,2.9605,2.9688,2.9656,2.9686,2.9707,2.971,2.9717,2.9693,2.9735,2.9812,2.9821,2.9724,2.9723,2.9722,0,2.9104,2.9195,2.926,2.9286,2.9355,2.9386,2.9416,2.9465,2.95,2.9551,2.9574,2.9631,2.9662,2.9706,2.9737,2.9719,2.9817,2.9799,2.9834,2.9833,2.9853,2.9851,2.9935,2.9873,2.9873,2.9873,2.9873,0,2.9171,2.9226,2.9275,2.9315,2.9377,2.9408,2.9468,2.9499,2.9543,2.959,2.9607,2.9651,2.9689,2.9738,2.9762,2.9827,2.9842,2.9858,2.9864,2.9856,2.9854,2.9875,2.9872,2.9876,2.9875,2.9875,2.9874,0,2.9216,2.9251,2.9323,2.9383,2.9399,2.9442,2.9493,2.9533,2.9562,2.9621,2.9636,2.9682,2.9741,2.9776,2.985,2.9867,2.9938,2.9943,2.9921,2.9923,2.9956,2.9952,3.0056,3.0071,2.9999,3.0,3.0001,0,2.9256,2.9298,2.9362,2.9394,2.9425,2.9477,2.9513,2.9545,2.9582,2.9644,2.9676,2.9736,2.9785,2.9878,2.9918,2.9975,2.9981,3.0013,2.9989,2.9981,2.9981,2.9978,2.9982,3.0017,3.0018,3.0018,3.0019,0,2.9323,2.9338,2.9389,2.9446,2.9488,2.9534,2.958,2.9606,2.9646,2.9686,2.9746,2.9785,2.9861,2.992,2.998,3.0012,3.0022,3.0026,3.0037,3.0029,3.0015,3.0023,2.9931,3.0023,3.0023,3.0022,3.0022,3.0022,2.9366,2.9405,2.9456,2.9511,2.955,2.9592,2.9633,2.9667,2.9718,2.9782,2.9798,2.9861,2.9912,2.9994,3.0028,3.0078,3.0072,3.0088,3.0092,3.0096,3.0096,3.0007,3.0089,3.0089,3.0089,3.0089,3.0089,0,2.9434,2.9468,2.9519,2.9583,2.9627,2.9633,2.9685,2.9721,2.9776,2.9823,2.9871,2.994,2.9998,3.0043,3.0102,3.0133,3.014,3.0148,3.0145,3.0153,3.0098,3.0082,3.0142,3.0142,3.0142,3.0142,3.0142,3.0142,2.9474,2.954,2.9561,2.9646,2.9679,2.9741,2.977,2.981,2.9847,2.9923,2.9971,3.0,3.0046,3.0109,3.0162,3.0174,3.0195,3.0202,3.0215,3.0162,3.0156,3.0151,3.0136,3.0207,3.0207,3.0266,3.0266,3.0267]},{"header":{"parameterUnit":"m.s-1","parameterCategory":1,"la1":30.2991,"la2":30.254,"lo1":-89.0895,"lo2":-89.0444,"dy":0.0017,"dx":0.0017,"nx":28,"ny":28,"refTime":"2023-09-16T09:00:00:Z","depth":0,"parameterNumber":3,"parameterNumberName":"V-component_of_WINDS"},"data":[0,0,0,0,0,0,0,0,0,0,0,0,0,0,0,0,0,0,0,0,0,0,0,0,0,0,0,0,0,0,0,0,0,0,0,0,0,0,0,0,0,0,0,0,0,0,0,0,0,0,0,0,0,0,0,0,0,0,1.3234,1.3235,0,1.3312,1.3313,1.3314,1.3361,1.3361,1.3361,1.3362,1.3439,1.344,1.3442,0,0,0,0,0,0,0,0,0,0,0,0,0,1.3122,1.3124,1.3234,1.3235,1.3236,1.3312,1.3313,1.3314,1.3361,1.3361,1.3361,1.3362,1.3438,1.344,1.3442,0,0,0,0,0,0,0,0,0,0,0,0,0,1.3183,1.3125,1.3234,1.3268,1.3272,1.3312,1.3313,1.3314,1.3361,1.3361,1.3361,1.3362,1.3437,1.344,1.3443,1.3453,0,0,1.3451,1.3452,0,0,0,0,0,0,0,0,1.3179,1.3187,1.3262,1.3266,1.3271,1.3327,1.3302,1.3361,1.3361,1.3327,1.3362,1.3362,1.3401,1.3407,1.3421,1.3456,1.346,1.3451,1.3453,1.3454,1.3455,0,0,0,0,0,0,0,1.3175,1.3183,1.3265,1.3263,1.3268,1.3279,1.3288,1.3313,1.3361,1.333,1.3334,1.3342,1.3403,1.3418,1.3423,1.3461,1.3451,1.3454,1.3455,1.3456,1.3507,1.3507,0,0,0,0,0,0,1.3166,1.318,1.3262,1.3267,1.3225,1.3281,1.3291,1.3309,1.3361,1.3369,1.3342,1.3344,1.3413,1.3419,1.3426,1.344,1.3454,1.3457,1.3458,1.3508,1.3507,1.3507,0,0,0,0,0,0,1.3163,1.3172,1.3259,1.3224,1.3236,1.3282,1.3302,1.331,1.3325,1.337,1.3378,1.3348,1.3413,1.3422,1.3446,1.3443,1.3458,1.346,1.3508,1.3508,1.3507,1.3469,0,0,0,0,0,0,1.316,1.3171,1.3176,1.3224,1.3238,1.3279,1.3302,1.3311,1.3329,1.3333,1.3378,1.3386,1.3414,1.3441,1.3448,1.3448,1.3463,1.3508,1.3508,1.3507,1.3471,1.3468,1.3465,0,0,0,0,0,1.3155,1.3162,1.3176,1.3186,1.3245,1.3278,1.3286,1.332,1.3329,1.3334,1.3363,1.3384,1.3443,1.3443,1.3452,1.3452,1.3509,1.3508,1.3507,1.3472,1.3468,1.3465,0,0,0,0,0,0,1.3112,1.3169,1.3185,1.3208,1.3238,1.3286,1.3294,1.3314,1.3342,1.3344,1.3384,1.3393,1.3413,1.3435,1.3434,1.3464,1.3478,1.3479,1.3449,1.3445,1.3442,1.3436,1.3465,0,0,0,0,0,1.3105,1.3128,1.3176,1.3192,1.3206,1.3247,1.3263,1.3286,1.3318,1.3331,1.3362,1.3392,1.3417,1.3432,1.3458,1.3475,1.3484,1.3479,1.3475,1.3473,1.3473,1.3482,1.348,1.3505,1.3505,1.3505,0,0,1.3091,1.3125,1.3137,1.3184,1.321,1.3232,1.3257,1.328,1.3296,1.3334,1.3359,1.3382,1.3418,1.3438,1.3448,1.3457,1.3468,1.3472,1.3469,1.3471,1.3481,1.3479,1.3477,1.3504,1.3505,1.3505,0,0,1.3076,1.3105,1.312,1.3146,1.3185,1.3212,1.3216,1.3261,1.3279,1.3304,1.3333,1.3352,1.3395,1.3419,1.3436,1.343,1.345,1.3437,1.3421,1.343,1.3428,1.3426,1.3423,1.3421,1.3437,1.3437,1.3437,0,1.3053,1.3088,1.3125,1.3146,1.3165,1.3201,1.3217,1.324,1.3285,1.3297,1.3306,1.3359,1.3386,1.3412,1.341,1.3424,1.3428,1.3432,1.3425,1.3424,1.3423,1.342,1.3419,1.3435,1.3436,1.3436,1.3436,0,1.3058,1.3082,1.3089,1.3133,1.3153,1.3171,1.3209,1.3225,1.3246,1.3272,1.3297,1.333,1.3362,1.337,1.3391,1.3399,1.3403,1.3418,1.3433,1.3418,1.3416,1.3416,1.3433,1.3433,1.3434,1.3434,0,0,1.3018,1.3081,1.3083,1.3103,1.3149,1.3168,1.3187,1.3219,1.3232,1.3261,1.3277,1.3312,1.3327,1.3347,1.337,1.3378,1.337,1.3393,1.3394,1.3386,1.3379,1.3366,1.3365,1.3384,1.3384,1.3384,1.3376,0,1.3009,1.3046,1.3079,1.3103,1.3125,1.316,1.3176,1.3205,1.323,1.3251,1.3278,1.3302,1.3319,1.3331,1.3341,1.3369,1.3369,1.337,1.3398,1.3398,1.3387,1.3364,1.3351,1.3342,1.3375,1.3375,1.3375,0,1.3004,1.3033,1.3059,1.3103,1.3113,1.3127,1.3159,1.318,1.3213,1.323,1.3252,1.3277,1.3298,1.3311,1.3339,1.3339,1.3352,1.3367,1.3368,1.3371,1.3385,1.3365,1.334,1.3338,1.3374,1.3374,1.3374,0,1.2971,1.3016,1.3038,1.3054,1.3105,1.3114,1.3136,1.317,1.3187,1.3215,1.3226,1.3255,1.3271,1.3293,1.3325,1.3332,1.3348,1.3365,1.3362,1.3361,1.3363,1.3363,1.3338,1.3373,1.3373,1.3373,1.3373,0,1.2957,1.2971,1.3024,1.3037,1.3054,1.3092,1.3107,1.3131,1.3161,1.3179,1.321,1.3226,1.3268,1.3288,1.3313,1.3331,1.3338,1.3352,1.3358,1.3348,1.3346,1.3357,1.3358,1.3373,1.3373,1.3373,1.3373,0,1.2922,1.2958,1.2984,1.303,1.3042,1.3053,1.3092,1.3105,1.3132,1.3153,1.3161,1.3202,1.3227,1.3261,1.3297,1.3313,1.3328,1.3339,1.3317,1.3321,1.3316,1.3315,1.3297,1.3296,1.3331,1.3331,1.3331,0,1.2911,1.2923,1.2971,1.2986,1.3006,1.3029,1.3047,1.3085,1.3102,1.314,1.3149,1.3177,1.3201,1.324,1.3272,1.3299,1.331,1.3301,1.3314,1.3303,1.3308,1.3307,1.3307,1.3298,1.3297,1.3297,1.3296,0,1.2886,1.2903,1.2929,1.296,1.298,1.3006,1.3034,1.3044,1.3087,1.3104,1.3131,1.315,1.3186,1.3213,1.3244,1.3265,1.3287,1.3292,1.3293,1.3283,1.3269,1.3275,1.3308,1.3292,1.3293,1.3293,1.3293,1.3293,1.2862,1.2874,1.291,1.2937,1.2961,1.2986,1.3001,1.3029,1.3053,1.3086,1.3107,1.3132,1.3164,1.3209,1.3229,1.3248,1.3257,1.3258,1.3258,1.3258,1.3254,1.3267,1.3254,1.3254,1.3255,1.3255,1.3255,0,1.2839,1.2863,1.2888,1.2925,1.2946,1.2966,1.2997,1.3013,1.3035,1.3064,1.3087,1.3117,1.3144,1.3178,1.3206,1.3215,1.3225,1.3221,1.322,1.3224,1.3245,1.3241,1.3212,1.3212,1.3212,1.3212,1.3212,1.3212,1.2829,1.285,1.2871,1.2904,1.2929,1.2955,1.297,1.2993,1.3016,1.3049,1.3071,1.3093,1.3124,1.3154,1.3179,1.3188,1.3196,1.3188,1.32,1.3219,1.3223,1.3226,1.3223,1.319,1.319,1.3177,1.3177,1.3177]}]]